GW2381 Weather Reports


time (UTC)temp
C
wind
direction
speed
KPH
gust
KPH
rain 1hr
cm
rain 24hr
cm
rain mn
cm
humidity
%
barometer
mb
20260509000056 25 229 6.4 8.0 0.00 0.00 0.00 20 1010.8
20260508235554 25 244 4.8 4.8 0.00 0.00 0.00 20 1011.3
20260508235050 25 225 4.8 4.8 0.00 0.00 0.00 20 1011.2
20260508234548 25 265 1.6 3.2 0.00 0.00 0.00 19 1011.0
20260508234044 25 267 4.8 4.8 0.00 0.00 0.00 20 1011.2
20260508233544 25 258 6.4 8.0 0.00 0.00 0.00 20 1011.3
20260508233041 25 244 8.0 9.7 0.00 0.00 0.00 19 1011.4
20260508232537 25 249 0.0 0.0 0.00 0.00 0.00 20 1011.3
20260508232035 24 172 1.6 1.6 0.00 0.00 0.00 20 1011.6
20260508231532 25 227 9.7 12.9 0.00 0.00 0.00 20 1011.2
20260508231029 25 220 6.4 8.0 0.00 0.00 0.00 20 1011.3
20260508230526 25 278 1.6 3.2 0.00 0.00 0.00 20 1011.3
20260508230022 24 326 1.6 1.6 0.00 0.00 0.00 20 1011.4
20260508225520 24 276 4.8 4.8 0.00 0.00 0.00 21 1011.4
20260508225016 25 318 8.0 11.3 0.00 0.00 0.00 19 1011.4
20260508224514 25 280 3.2 3.2 0.00 0.00 0.00 18 1011.6
20260508224011 25 255 8.0 11.3 0.00 0.00 0.00 19 1011.6
20260508223509 25 244 1.6 1.6 0.00 0.00 0.00 21 1011.8
20260508223006 25 204 8.0 9.7 0.00 0.00 0.00 19 1012.0
20260508222503 25 228 3.2 4.8 0.00 0.00 0.00 20 1012.0
20260508222000 25 276 1.6 1.6 0.00 0.00 0.00 20 1012.0
20260508221456 24 242 4.8 4.8 0.00 0.00 0.00 21 1012.2
20260508220952 25 246 6.4 8.0 0.00 0.00 0.00 20 1012.1
20260508220449 24 63 1.6 1.6 0.00 0.00 0.00 21 1012.3
20260508215945 23 151 1.6 1.6 0.00 0.00 0.00 18 1012.2
20260508215443 25 309 14.5 16.1 0.00 0.00 0.00 19 1012.4
20260508214939 24 305 4.8 4.8 0.00 0.00 0.00 21 1012.2
20260508214437 25 278 4.8 4.8 0.00 0.00 0.00 22 1012.4
20260508213932 25 231 6.4 8.0 0.00 0.00 0.00 21 1012.6
20260508213430 24 246 6.4 8.0 0.00 0.00 0.00 21 1012.6
20260508212925 23 251 4.8 8.0 0.00 0.00 0.00 22 1012.6
20260508212422 24 257 4.8 4.8 0.00 0.00 0.00 23 1012.6
20260508211918 24 217 4.8 4.8 0.00 0.00 0.00 21 1012.7
20260508211414 23 293 6.4 8.0 0.00 0.00 0.00 22 1012.7
20260508210911 23 252 1.6 3.2 0.00 0.00 0.00 22 1013.1
20260508210408 23 259 4.8 4.8 0.00 0.00 0.00 22 1013.1
20260508205904 24 297 6.4 8.0 0.00 0.00 0.00 21 1013.0
20260508205401 23 294 6.4 8.0 0.00 0.00 0.00 22 1012.9
20260508204857 23 257 3.2 3.2 0.00 0.00 0.00 24 1013.1
20260508204355 23 327 8.0 11.3 0.00 0.00 0.00 22 1013.3
20260508203850 23 246 8.0 11.3 0.00 0.00 0.00 21 1013.2
20260508203347 23 197 4.8 4.8 0.00 0.00 0.00 22 1013.2
20260508202842 24 237 4.8 8.0 0.00 0.00 0.00 24 1013.2
20260508202340 24 84 1.6 3.2 0.00 0.00 0.00 22 1013.2
20260508201837 23 281 3.2 8.0 0.00 0.00 0.00 24 1013.3
20260508201334 23 240 9.7 14.5 0.00 0.00 0.00 24 1013.3
20260508200830 23 284 4.8 4.8 0.00 0.00 0.00 24 1013.2
20260508200327 23 285 6.4 9.7 0.00 0.00 0.00 24 1013.3
20260508195822 22 279 3.2 3.2 0.00 0.00 0.00 27 1013.2
20260508195319 22 298 3.2 3.2 0.00 0.00 0.00 26 1013.5
20260508194810 23 330 4.8 4.8 0.00 0.00 0.00 23 1013.3
20260508194308 22 299 4.8 8.0 0.00 0.00 0.00 27 1013.4
20260508193804 22 263 1.6 3.2 0.00 0.00 0.00 27 1013.3
20260508193301 22 310 8.0 9.7 0.00 0.00 0.00 25 1013.4
20260508192757 22 302 8.0 11.3 0.00 0.00 0.00 24 1013.4
20260508192254 22 299 11.3 12.9 0.00 0.00 0.00 27 1013.7
20260508191752 21 287 8.0 9.7 0.00 0.00 0.00 29 1013.5
20260508191249 22 290 11.3 14.5 0.00 0.00 0.00 27 1013.5
20260508190746 22 274 6.4 8.0 0.00 0.00 0.00 28 1013.9
20260508190242 22 304 6.4 8.0 0.00 0.00 0.00 27 1013.7
20260508185738 22 281 4.8 4.8 0.00 0.00 0.00 30 1013.7
20260508185236 22 282 4.8 8.0 0.00 0.00 0.00 29 1013.8
20260508184733 22 276 4.8 4.8 0.00 0.00 0.00 31 1013.7
20260508184230 22 276 3.2 4.8 0.00 0.00 0.00 28 1013.8
20260508183727 22 248 4.8 4.8 0.00 0.00 0.00 28 1013.8
20260508183223 22 247 3.2 3.2 0.00 0.00 0.00 28 1014.0
20260508182719 21 228 4.8 4.8 0.00 0.00 0.00 30 1014.1
20260508182216 22 238 11.3 12.9 0.00 0.00 0.00 26 1014.1
20260508181712 21 246 8.0 11.3 0.00 0.00 0.00 25 1014.0
20260508181209 21 255 3.2 3.2 0.00 0.00 0.00 33 1014.0
20260508180706 22 227 4.8 8.0 0.00 0.00 0.00 30 1013.9
20260508180203 22 249 4.8 4.8 0.00 0.00 0.00 30 1014.2
20260508175659 21 333 1.6 1.6 0.00 0.00 0.00 30 1014.1
20260508175156 21 317 4.8 4.8 0.00 0.00 0.00 31 1014.2
20260508174654 21 188 1.6 1.6 0.00 0.00 0.00 33 1014.2
20260508174150 20 217 9.7 11.3 0.00 0.00 0.00 33 1014.2
20260508173647 20 162 4.8 4.8 0.00 0.00 0.00 34 1014.3
20260508173143 21 279 3.2 3.2 0.00 0.00 0.00 33 1014.4
20260508172640 20 287 6.4 8.0 0.00 0.00 0.00 33 1014.4
20260508172137 20 298 1.6 1.6 0.00 0.00 0.00 33 1014.4
20260508171633 20 308 4.8 4.8 0.00 0.00 0.00 33 1014.2
20260508171130 20 292 4.8 4.8 0.00 0.00 0.00 34 1014.4
20260508170627 20 307 6.4 9.7 0.00 0.00 0.00 36 1014.4
20260508170125 20 250 3.2 4.8 0.00 0.00 0.00 37 1014.4
20260508165622 20 221 3.2 4.8 0.00 0.00 0.00 39 1014.3
20260508165119 20 263 4.8 8.0 0.00 0.00 0.00 40 1014.3
20260508164615 20 258 4.8 8.0 0.00 0.00 0.00 43 1014.2
20260508164112 20 250 4.8 4.8 0.00 0.00 0.00 44 1014.2
20260508163609 20 253 3.2 3.2 0.00 0.00 0.00 46 1014.2
20260508163106 20 227 3.2 3.2 0.00 0.00 0.00 43 1014.2
20260508162603 20 274 3.2 3.2 0.00 0.00 0.00 45 1014.0
20260508162100 20 242 3.2 4.8 0.00 0.00 0.00 43 1014.0
20260508161557 19 211 0.0 0.0 0.00 0.00 0.00 44 1014.0
20260508161054 19 226 3.2 3.2 0.00 0.00 0.00 46 1014.0
20260508160553 19 215 1.6 1.6 0.00 0.00 0.00 45 1013.9
20260508160049 19 240 1.6 1.6 0.00 0.00 0.00 48 1013.8
20260508155546 18 286 0.0 1.6 0.00 0.00 0.00 45 1014.1
20260508155043 18 233 1.6 1.6 0.00 0.00 0.00 45 1014.0
20260508154540 19 225 1.6 1.6 0.00 0.00 0.00 46 1014.1
20260508154037 18 273 3.2 3.2 0.00 0.00 0.00 45 1014.0
20260508153534 18 211 0.0 1.6 0.00 0.00 0.00 46 1013.9
20260508153030 19 202 1.6 1.6 0.00 0.00 0.00 45 1013.8
20260508152528 19 188 0.0 0.0 0.00 0.00 0.00 44 1013.9
20260508152023 18 184 0.0 1.6 0.00 0.00 0.00 45 1013.9
20260508151520 18 210 1.6 1.6 0.00 0.00 0.00 47 1013.7
20260508151016 17 210 0.0 1.6 0.00 0.00 0.00 50 1013.9
20260508150514 17 162 1.6 1.6 0.00 0.00 0.00 47 1013.9
20260508150009 17 156 0.0 0.0 0.00 0.00 0.00 47 1013.8
20260508145506 17 157 1.6 3.2 0.00 0.00 0.00 46 1013.9
20260508145002 17 159 1.6 3.2 0.00 0.00 0.00 45 1013.9
20260508144500 16 160 0.0 1.6 0.00 0.00 0.00 47 1013.7
20260508143958 16 162 3.2 3.2 0.00 0.00 0.00 46 1013.4
20260508143455 16 178 1.6 1.6 0.00 0.00 0.00 46 1013.7
20260508142951 16 168 0.0 1.6 0.00 0.00 0.00 46 1013.7
20260508142449 16 159 1.6 1.6 0.00 0.00 0.00 46 1013.5
20260508141944 15 155 1.6 1.6 0.00 0.00 0.00 46 1013.7
20260508141442 15 152 1.6 3.2 0.00 0.00 0.00 46 1013.5
20260508140939 15 164 1.6 1.6 0.00 0.00 0.00 47 1013.4
20260508140436 14 175 0.0 0.0 0.00 0.00 0.00 48 1013.5
20260508135931 15 168 3.2 3.2 0.00 0.00 0.00 46 1013.3
20260508135428 15 142 0.0 0.0 0.00 0.00 0.00 46 1013.4
20260508134925 13 150 0.0 0.0 0.00 0.00 0.00 48 1013.3
20260508134421 13 147 3.2 3.2 0.00 0.00 0.00 45 1013.1
20260508133918 13 162 1.6 1.6 0.00 0.00 0.00 47 1013.1
20260508133416 12 163 0.0 1.6 0.00 0.00 0.00 49 1013.4
20260508132913 13 76 0.0 1.6 0.00 0.00 0.00 50 1013.0
20260508132411 12 76 0.0 0.0 0.00 0.00 0.00 51 1013.1
20260508131907 13 76 0.0 0.0 0.00 0.00 0.00 49 1012.9
20260508131403 11 76 0.0 0.0 0.00 0.00 0.00 52 1013.0
20260508130900 11 76 0.0 0.0 0.00 0.00 0.00 51 1013.0
20260508130356 11 76 0.0 0.0 0.00 0.00 0.00 52 1012.6
20260508125852 11 76 1.6 1.6 0.00 0.00 0.00 51 1012.6
20260508125348 11 71 0.0 0.0 0.00 0.00 0.00 50 1012.6
20260508124846 11 67 1.6 1.6 0.00 0.00 0.00 52 1012.5
20260508124343 11 68 1.6 1.6 0.00 0.00 0.00 51 1012.5
20260508123841 11 68 0.0 1.6 0.00 0.00 0.00 53 1012.7
20260508123334 10 72 1.6 3.2 0.00 0.00 0.00 54 1012.3
20260508122830 10 75 1.6 1.6 0.00 0.00 0.00 56 1012.5
20260508122327 11 76 1.6 1.6 0.00 0.00 0.00 54 1012.2
20260508121824 10 81 0.0 0.0 0.00 0.00 0.00 55 1012.2
20260508121323 11 80 1.6 1.6 0.00 0.00 0.00 54 1012.4
20260508120820 12 81 0.0 1.6 0.00 0.00 0.00 51 1012.2
20260508120318 12 81 1.6 1.6 0.00 0.00 0.00 50 1012.1
20260508115815 11 88 1.6 1.6 0.00 0.00 0.00 52 1012.1
20260508115312 11 92 1.6 1.6 0.00 0.00 0.00 53 1012.1
20260508114809 11 83 1.6 1.6 0.00 0.00 0.00 53 1012.1
20260508114306 11 84 1.6 1.6 0.00 0.00 0.00 53 1011.8
20260508113802 12 87 1.6 1.6 0.00 0.00 0.00 50 1012.0
20260508113301 12 88 0.0 1.6 0.00 0.00 0.00 50 1012.0
20260508112756 12 83 1.6 1.6 0.00 0.00 0.00 50 1012.0
20260508112254 12 87 1.6 1.6 0.00 0.00 0.00 50 1011.8
20260508111749 11 80 0.0 1.6 0.00 0.00 0.00 51 1012.1
20260508111247 12 76 0.0 0.0 0.00 0.00 0.00 50 1012.0
20260508110744 12 75 1.6 1.6 0.00 0.00 0.00 50 1012.0
20260508110241 12 73 1.6 1.6 0.00 0.00 0.00 48 1012.0
20260508105736 12 63 1.6 1.6 0.00 0.00 0.00 48 1011.7
20260508105233 11 56 0.0 0.0 0.00 0.00 0.00 50 1011.8
20260508104730 11 53 0.0 0.0 0.00 0.00 0.00 51 1011.8
20260508104227 12 50 1.6 1.6 0.00 0.00 0.00 49 1012.0
20260508103725 12 49 0.0 1.6 0.00 0.00 0.00 47 1011.8
20260508103221 12 49 1.6 1.6 0.00 0.00 0.00 47 1011.6
20260508102718 12 17 1.6 1.6 0.00 0.00 0.00 48 1011.8
20260508102216 11 352 0.0 0.0 0.00 0.00 0.00 50 1011.5
20260508101713 11 317 0.0 0.0 0.00 0.00 0.00 53 1011.7
20260508101211 11 309 1.6 1.6 0.00 0.00 0.00 52 1011.6
20260508100708 11 309 0.0 0.0 0.00 0.00 0.00 53 1011.7
20260508100206 11 309 0.0 1.6 0.00 0.00 0.00 53 1011.7
20260508095702 11 308 1.6 1.6 0.00 0.00 0.00 54 1011.5
20260508095159 10 322 0.0 0.0 0.00 0.00 0.00 57 1011.6
20260508094656 11 321 1.6 1.6 0.00 0.00 0.00 56 1011.5
20260508094153 11 321 1.6 1.6 0.00 0.00 0.00 55 1011.6
20260508093650 11 278 0.0 0.0 0.00 0.00 0.00 55 1011.7
20260508093148 10 277 0.0 1.6 0.00 0.00 0.00 57 1011.5
20260508092645 11 279 0.0 0.0 0.00 0.00 0.00 56 1011.4
20260508092143 11 279 0.0 0.0 0.00 0.00 0.00 56 1011.8
20260508091640 10 279 0.0 1.6 0.00 0.00 0.00 56 1011.6
20260508091137 10 279 0.0 1.6 0.00 0.00 0.00 57 1011.4
20260508090635 11 279 0.0 0.0 0.00 0.00 0.00 56 1011.4
20260508090132 11 279 0.0 0.0 0.00 0.00 0.00 56 1011.5
20260508085628 11 279 0.0 1.6 0.00 0.00 0.00 56 1011.4
20260508085126 11 279 0.0 1.6 0.00 0.00 0.00 56 1011.4
20260508084622 11 279 1.6 1.6 0.00 0.00 0.00 55 1011.7
20260508084120 11 278 0.0 0.0 0.00 0.00 0.00 55 1011.5
20260508083616 11 281 3.2 3.2 0.00 0.00 0.00 54 1011.6
20260508083114 12 292 3.2 3.2 0.00 0.00 0.00 53 1011.6
20260508082609 12 313 0.0 0.0 0.00 0.00 0.00 50 1011.5
20260508082107 12 313 0.0 0.0 0.00 0.00 0.00 50 1011.5
20260508081604 12 313 0.0 0.0 0.00 0.00 0.00 49 1011.6
20260508081100 13 313 1.6 1.6 0.00 0.00 0.00 48 1011.4
20260508080558 13 313 1.6 1.6 0.00 0.00 0.00 48 1011.5
20260508080055 13 313 1.6 1.6 0.00 0.00 0.00 48 1011.6
20260508075552 13 313 1.6 1.6 0.00 0.00 0.00 49 1011.6
20260508075049 13 313 1.6 1.6 0.00 0.00 0.00 49 1011.7
20260508074547 13 313 1.6 1.6 0.00 0.00 0.00 47 1011.4
20260508074043 13 313 1.6 1.6 0.00 0.00 0.00 47 1011.3
20260508073540 13 299 1.6 1.6 0.00 0.00 0.00 47 1011.4
20260508073038 12 292 1.6 1.6 0.00 0.00 0.00 48 1011.4
20260508072534 12 292 0.0 0.0 0.00 0.00 0.00 50 1011.5
20260508072031 13 292 0.0 0.0 0.00 0.00 0.00 49 1011.5
20260508071529 12 292 0.0 0.0 0.00 0.00 0.00 51 1011.4
20260508071026 12 292 0.0 0.0 0.00 0.00 0.00 51 1011.5
20260508070524 12 292 0.0 0.0 0.00 0.00 0.00 51 1011.4
20260508070022 13 292 0.0 0.0 0.00 0.00 0.00 50 1011.5
20260508065519 13 292 0.0 0.0 0.00 0.00 0.00 51 1011.4
20260508065018 13 292 0.0 0.0 0.00 0.00 0.00 50 1011.4
20260508064515 13 292 0.0 0.0 0.00 0.00 0.00 49 1011.4
20260508064013 13 292 0.0 0.0 0.00 0.00 0.00 47 1011.3
20260508063510 13 288 1.6 1.6 0.00 0.00 0.00 49 1011.3
20260508063007 13 269 0.0 0.0 0.00 0.00 0.00 51 1011.2
20260508062505 13 269 1.6 1.6 0.00 0.00 0.00 50 1011.2
20260508062001 13 269 0.0 1.6 0.00 0.00 0.00 49 1011.2
20260508061500 13 269 0.0 0.0 0.00 0.00 0.00 49 1010.9
20260508060955 13 269 0.0 0.0 0.00 0.00 0.00 50 1011.2
20260508060453 13 269 0.0 0.0 0.00 0.00 0.00 49 1011.2
20260508055949 13 269 0.0 0.0 0.00 0.00 0.00 48 1011.0
20260508055446 13 269 0.0 0.0 0.00 0.00 0.00 48 1011.3
20260508054942 14 269 0.0 0.0 0.00 0.00 0.00 48 1011.2
20260508054439 15 269 1.6 1.6 0.00 0.00 0.00 46 1011.2
20260508053936 15 243 1.6 1.6 0.00 0.00 0.00 45 1010.9
20260508053433 15 231 0.0 1.6 0.00 0.00 0.00 45 1010.9
20260508052931 15 232 0.0 1.6 0.00 0.00 0.00 44 1011.2
20260508052428 16 5 0.0 0.0 0.00 0.00 0.00 41 1011.0
20260508051924 16 5 0.0 1.6 0.00 0.00 0.00 40 1011.0
20260508051420 16 5 0.0 0.0 0.00 0.00 0.00 42 1011.2
20260508050916 16 5 1.6 1.6 0.00 0.00 0.00 40 1011.0
20260508050413 16 5 0.0 0.0 0.00 0.00 0.00 40 1010.8
20260508045909 16 350 1.6 1.6 0.00 0.00 0.00 40 1010.7
20260508045407 16 330 1.6 1.6 0.00 0.00 0.00 42 1010.7
20260508044905 16 325 1.6 1.6 0.00 0.00 0.00 41 1010.9
20260508044402 16 308 1.6 1.6 0.00 0.00 0.00 42 1010.6
20260508043857 16 308 0.0 1.6 0.00 0.00 0.00 40 1010.9
20260508043354 17 308 1.6 1.6 0.00 0.00 0.00 40 1010.8
20260508042851 17 308 1.6 1.6 0.00 0.00 0.00 40 1010.8
20260508042349 16 308 0.0 1.6 0.00 0.00 0.00 40 1010.8
20260508041845 16 308 0.0 0.0 0.00 0.00 0.00 40 1010.6
20260508041342 17 308 0.0 1.6 0.00 0.00 0.00 39 1010.8
20260508040838 17 308 1.6 1.6 0.00 0.00 0.00 40 1010.7
20260508040335 17 307 1.6 1.6 0.00 0.00 0.00 40 1010.7
20260508035833 17 304 1.6 1.6 0.00 0.00 0.00 39 1010.7
20260508035330 17 295 1.6 1.6 0.00 0.00 0.00 39 1010.7
20260508034827 17 295 0.0 1.6 0.00 0.00 0.00 37 1010.5
20260508034324 17 295 0.0 0.0 0.00 0.00 0.00 38 1010.6
20260508033821 18 295 0.0 0.0 0.00 0.00 0.00 36 1010.3
20260508033319 18 295 0.0 0.0 0.00 0.00 0.00 34 1010.5
20260508032816 18 295 0.0 0.0 0.00 0.00 0.00 36 1010.5
20260508032314 18 295 0.0 0.0 0.00 0.00 0.00 35 1010.4
20260508031810 18 295 0.0 0.0 0.00 0.00 0.00 35 1010.4
20260508031307 18 295 0.0 0.0 0.00 0.00 0.00 36 1010.3
20260508030803 18 295 0.0 0.0 0.00 0.00 0.00 36 1010.3
20260508030301 18 295 0.0 0.0 0.00 0.00 0.00 34 1010.0
20260508025757 18 295 0.0 0.0 0.00 0.00 0.00 33 1010.3
20260508025254 19 295 0.0 0.0 0.00 0.00 0.00 32 1010.1
20260508024750 19 295 0.0 0.0 0.00 0.00 0.00 33 1010.0
20260508024247 19 295 0.0 0.0 0.00 0.00 0.00 34 1010.3
20260508023744 19 295 0.0 0.0 0.00 0.00 0.00 34 1010.3
20260508023241 20 295 0.0 0.0 0.00 0.00 0.00 33 1009.9
20260508022737 20 295 0.0 0.0 0.00 0.00 0.00 32 1010.0
20260508022234 20 295 0.0 0.0 0.00 0.00 0.00 30 1009.7
20260508021731 21 295 0.0 0.0 0.00 0.00 0.00 29 1009.9
20260508021226 22 295 0.0 0.0 0.00 0.00 0.00 29 1009.9
20260508020723 22 295 0.0 0.0 0.00 0.00 0.00 27 1009.9
20260508020221 22 295 0.0 1.6 0.00 0.00 0.00 27 1009.9
20260508015718 23 295 1.6 3.2 0.00 0.00 0.00 25 1010.0
20260508015215 23 284 1.6 1.6 0.00 0.00 0.00 25 1009.9
20260508014712 23 284 0.0 0.0 0.00 0.00 0.00 25 1009.9
20260508014208 23 289 3.2 3.2 0.00 0.00 0.00 25 1010.0
20260508013704 23 231 1.6 3.2 0.00 0.00 0.00 26 1009.9
20260508013201 23 256 1.6 1.6 0.00 0.00 0.00 26 1009.9
20260508012659 24 280 1.6 1.6 0.00 0.00 0.00 24 1009.9
20260508012155 24 277 0.0 1.6 0.00 0.00 0.00 24 1010.0
20260508011654 25 271 3.2 3.2 0.00 0.00 0.00 24 1010.0
20260508011150 23 267 0.0 0.0 0.00 0.00 0.00 25 1009.9
20260508010647 23 263 1.6 3.2 0.00 0.00 0.00 26 1009.9
20260508010145 23 293 4.8 4.8 0.00 0.00 0.00 25 1010.0
20260508005642 23 262 1.6 3.2 0.00 0.00 0.00 25 1010.4
20260508005139 23 287 6.4 8.0 0.00 0.00 0.00 25 1010.3
20260508004634 23 274 3.2 3.2 0.00 0.00 0.00 25 1010.0
20260508004131 24 210 6.4 8.0 0.00 0.00 0.00 24 1010.0
20260508003627 23 305 6.4 8.0 0.00 0.00 0.00 24 1010.1
20260508003125 24 292 1.6 1.6 0.00 0.00 0.00 25 1009.9
20260508002621 24 238 3.2 3.2 0.00 0.00 0.00 24 1009.8
20260508002119 24 232 3.2 3.2 0.00 0.00 0.00 25 1010.1
20260508001614 25 170 0.0 1.6 0.00 0.00 0.00 25 1010.0
20260508001110 23 216 1.6 3.2 0.00 0.00 0.00 25 1010.3
20260508000606 23 238 3.2 3.2 0.00 0.00 0.00 27 1010.3